Volver al catálogo

CZ-3A DEB

LostGTO
NORAD 35563·DEBRIS·🇨🇳 China

Lanzado Feb 2, 2007 desde Xichang Satellite Launch Center

Loading…

TLE

ObsoletoSource: Space-Track

Época: Jun 1, 2026, 05:54 UTC

1 35563U 07003X   26152.24607113  .00000339  00000-0  59908-2 0  9990
2 35563  21.7032 171.2917 7481304  83.1769 359.3071  1.89935042 15777

Sigue CZ-3A DEB en tiempo real con AllMySat

Download on the App Store